sat.trackr.live / text

‹ back to catalog

STARLINK-36879

NORAD 67982 · 2026-038X

PAYLOAD ACTIVE UNKNOWN

§ Identity

Operator
Country
US
Launch date
2026-02-25
Launch site
AFWTR
Launch vehicle
Mass (kg)
RCS (m²)

Purposes: comms

External: N2YO · Heavens-Above · Gunter

§ Orbital elements

Epoch: 2026-09-19T14:59:50.019936Z

Period
93.91 min
Inclination
97.2843°
Eccentricity
0.0001316
Mean motion
15.33448864 rev/d
Perigee alt
464.6 km
Apogee alt
466.4 km
Semi-major
6,843.7 km
B*
3.6142e-4
RAAN
271.0418°
Arg perigee
82.6970°
Mean anomaly
277.4422°
Rev number
3,296

§ Raw data

STARLINK-368791 67982U 26038X   26262.62488449  .00011612  00000+0  36142-3 0  99932 67982  97.2843 271.0418 0001316  82.6970 277.4422 15.33448864 32967

JSON: /api/v1/satellites/67982 · /tle

For live sub-satellite position, see the globe view (requires WebGL).

§ Visibility from observer

Set your observer location to see the next 7 days of passes ≥ 10°. The values pass through the URL so the page stays shareable.

No JS? Fill the form by hand. The geolocation button needs JavaScript.